| time (UTC) | temp F | wind direction | speed knots | gust knots | rain 1hr in | rain 24hr in | rain mn in | humidity % | barometer mb |
| 20260508202531 | 76 | 197 | 1.7 | 7.8 | 0.00 | 0.14 | 0.14 | 67 | 1008.9 |
| 20260508201519 | 76 | 188 | 1.7 | 5.2 | 0.00 | 0.14 | 0.14 | 66 | 1009.1 |
| 20260508200537 | 76 | 144 | 1.7 | 7.8 | 0.00 | 0.14 | 0.14 | 65 | 1009.1 |
| 20260508195533 | 77 | 254 | 1.7 | 7.8 | 0.00 | 0.14 | 0.14 | 65 | 1009.2 |
| 20260508194523 | 77 | 118 | 1.7 | 5.2 | 0.00 | 0.14 | 0.14 | 68 | 1009.2 |
| 20260508193459 | 76 | 150 | 0.9 | 7.0 | 0.00 | 0.14 | 0.14 | 66 | 1009.3 |
| 20260508192521 | 76 | 223 | 1.7 | 7.0 | 0.00 | 0.14 | 0.14 | 67 | 1009.3 |
| 20260508191523 | 77 | 225 | 1.7 | 5.2 | 0.00 | 0.14 | 0.14 | 66 | 1009.4 |
| 20260508190513 | 77 | 169 | 0.9 | 6.1 | 0.00 | 0.14 | 0.14 | 66 | 1009.5 |
| 20260508185459 | 77 | 220 | 1.7 | 6.1 | 0.00 | 0.14 | 0.14 | 68 | 1009.6 |
| 20260508184504 | 77 | 257 | 0.9 | 7.0 | 0.00 | 0.14 | 0.14 | 67 | 1009.6 |
| 20260508183451 | 76 | 208 | 1.7 | 7.0 | 0.00 | 0.14 | 0.14 | 67 | 1009.7 |
| 20260508182437 | 75 | 262 | 0.9 | 5.2 | 0.00 | 0.14 | 0.14 | 67 | 1009.8 |
| 20260508181400 | 75 | 250 | 1.7 | 7.0 | 0.00 | 0.14 | 0.14 | 67 | 1010.1 |
| 20260508180417 | 75 | 176 | 2.6 | 7.0 | 0.00 | 0.14 | 0.14 | 66 | 1010.4 |
| 20260508175408 | 75 | 222 | 0.9 | 7.0 | 0.00 | 0.14 | 0.14 | 66 | 1010.5 |
| 20260508174358 | 73 | 88 | 1.7 | 7.0 | 0.00 | 0.14 | 0.14 | 67 | 1010.8 |
| 20260508172301 | 73 | 229 | 0.9 | 4.3 | 0.00 | 0.14 | 0.14 | 67 | 1010.9 |
| 20260508171306 | 73 | 163 | 0.9 | 3.5 | 0.00 | 0.14 | 0.14 | 69 | 1011.1 |
| 20260508170236 | 72 | 133 | 0.9 | 5.2 | 0.00 | 0.14 | 0.14 | 70 | 1011.3 |
| 20260508165206 | 71 | 262 | 0.9 | 5.2 | 0.00 | 0.14 | 0.14 | 70 | 1011.6 |
| 20260508164216 | 70 | 168 | 0.9 | 5.2 | 0.00 | 0.14 | 0.14 | 72 | 1011.9 |
| 20260508162108 | 67 | 128 | 0.0 | 5.2 | 0.00 | 0.14 | 0.14 | 80 | 1012.3 |
| 20260508161103 | 66 | 134 | 0.9 | 4.3 | 0.00 | 0.14 | 0.14 | 82 | 1012.4 |
| 20260508160059 | 66 | 120 | 0.0 | 1.7 | 0.00 | 0.14 | 0.14 | 84 | 1012.5 |
| 20260508155052 | 65 | 0 | 0.0 | 1.7 | 0.00 | 0.14 | 0.14 | 84 | 1012.7 |
| 20260508154102 | 65 | 0 | 0.0 | 0.0 | 0.00 | 0.14 | 0.14 | 84 | 1012.7 |
| 20260508153027 | 65 | 120 | 0.0 | 0.0 | 0.04 | 0.14 | 0.14 | 83 | 1012.8 |
| 20260508152024 | 64 | 121 | 0.0 | 0.0 | 0.09 | 0.14 | 0.14 | 82 | 1012.9 |
| 20260508145908 | 65 | 120 | 0.0 | 2.6 | 0.00 | 0.05 | 0.05 | 78 | 1013.0 |
| 20260508144906 | 65 | 148 | 0.0 | 0.9 | 0.00 | 0.05 | 0.05 | 77 | 1013.0 |
| 20260508143927 | 66 | 166 | 0.9 | 4.3 | 0.00 | 0.05 | 0.05 | 76 | 1013.3 |
| 20260508142917 | 65 | 203 | 0.9 | 3.5 | 0.00 | 0.05 | 0.05 | 79 | 1013.2 |
| 20260508141855 | 64 | 128 | 0.0 | 1.7 | 0.00 | 0.05 | 0.05 | 81 | 1013.3 |
| 20260508140846 | 63 | 144 | 0.0 | 0.9 | 0.00 | 0.05 | 0.05 | 82 | 1013.7 |
| 20260508134727 | 63 | 0 | 0.0 | 2.6 | 0.00 | 0.05 | 0.05 | 86 | 1013.3 |
| 20260508133745 | 62 | 0 | 0.0 | 0.9 | 0.00 | 0.05 | 0.05 | 87 | 1013.3 |
| 20260508132747 | 62 | 116 | 0.0 | 0.9 | 0.00 | 0.05 | 0.05 | 88 | 1013.1 |
| 20260508130530 | 62 | 138 | 0.0 | 0.0 | 0.00 | 0.05 | 0.05 | 88 | 1013.3 |
| 20260508125544 | 61 | 138 | 0.0 | 0.0 | 0.00 | 0.05 | 0.05 | 88 | 1013.2 |
| 20260508123421 | 61 | 139 | 0.0 | 0.0 | 0.00 | 0.05 | 0.05 | 88 | 1013.3 |
| 20260508122410 | 60 | 138 | 0.0 | 0.9 | 0.00 | 0.05 | 0.05 | 87 | 1013.4 |
| 20260508115049 | 60 | 138 | 0.0 | 0.0 | 0.00 | 0.05 | 0.05 | 87 | 1013.6 |
| 20260508114019 | 60 | 138 | 0.0 | 0.0 | 0.00 | 0.05 | 0.05 | 86 | 1013.5 |
| 20260508113033 | 60 | 138 | 0.0 | 0.0 | 0.00 | 0.05 | 0.05 | 86 | 1013.4 |
| 20260508112020 | 60 | 138 | 0.0 | 0.9 | 0.00 | 0.05 | 0.05 | 86 | 1013.2 |
| 20260508110947 | 60 | 138 | 0.0 | 6.1 | 0.00 | 0.05 | 0.05 | 86 | 1013.3 |
| 20260508105927 | 60 | 138 | 0.0 | 2.6 | 0.00 | 0.05 | 0.05 | 86 | 1013.0 |
| 20260508104915 | 61 | 101 | 0.0 | 6.1 | 0.00 | 0.05 | 0.05 | 86 | 1012.8 |
| 20260508103843 | 61 | 173 | 0.0 | 0.9 | 0.00 | 0.05 | 0.05 | 86 | 1012.8 |
| 20260508095422 | 61 | 173 | 0.0 | 0.0 | 0.00 | 0.01 | 0.01 | 84 | 1013.2 |
| 20260508094356 | 61 | 173 | 0.0 | 0.0 | 0.00 | 0.01 | 0.01 | 84 | 1012.6 |
| 20260508092218 | 61 | 173 | 0.0 | 0.0 | 0.00 | 0.01 | 0.01 | 83 | 1012.5 |
| 20260508091232 | 61 | 173 | 0.0 | 0.0 | 0.00 | 0.01 | 0.01 | 83 | 1012.6 |
| 20260508090228 | 61 | 173 | 0.0 | 0.0 | 0.00 | 0.00 | 0.00 | 83 | 1012.8 |
| 20260508085208 | 61 | 173 | 0.0 | 0.0 | 0.00 | 0.00 | 0.00 | 83 | 1012.5 |
| 20260508084157 | 61 | 173 | 0.0 | 0.0 | 0.00 | 0.00 | 0.00 | 82 | 1012.8 |
| 20260508082105 | 61 | 259 | 0.0 | 2.6 | 0.00 | 0.00 | 0.00 | 81 | 1013.0 |
| 20260508081038 | 61 | 122 | 0.0 | 2.6 | 0.00 | 0.00 | 0.00 | 80 | 1013.2 |
| 20260508080039 | 61 | 237 | 0.0 | 2.6 | 0.00 | 0.00 | 0.00 | 79 | 1014.0 |
| 20260508075004 | 61 | 153 | 0.0 | 1.7 | 0.00 | 0.00 | 0.00 | 79 | 1013.7 |
| 20260508073948 | 61 | 260 | 0.0 | 0.0 | 0.00 | 0.00 | 0.00 | 80 | 1013.9 |
| 20260508072951 | 61 | 260 | 0.0 | 0.0 | 0.00 | 0.00 | 0.00 | 80 | 1014.0 |
| 20260508071917 | 61 | 260 | 0.0 | 0.0 | 0.00 | 0.00 | 0.00 | 81 | 1014.8 |
| 20260508070858 | 61 | 260 | 0.0 | 0.0 | 0.00 | 0.00 | 0.00 | 81 | 1014.5 |
| 20260508065904 | 60 | 261 | 0.0 | 0.0 | 0.00 | 0.00 | 0.00 | 81 | 1014.3 |
| 20260508064851 | 60 | 261 | 0.0 | 0.0 | 0.00 | 0.00 | 0.00 | 80 | 1014.1 |
| 20260508063821 | 60 | 261 | 0.0 | 0.0 | 0.00 | 0.00 | 0.00 | 81 | 1014.4 |
| 20260508062840 | 60 | 261 | 0.0 | 0.0 | 0.00 | 0.00 | 0.00 | 80 | 1014.6 |
| 20260508061856 | 60 | 261 | 0.0 | 0.0 | 0.00 | 0.00 | 0.00 | 79 | 1014.6 |
| 20260508060903 | 60 | 261 | 0.0 | 0.0 | 0.00 | 0.00 | 0.00 | 80 | 1014.8 |
| 20260508055838 | 60 | 261 | 0.0 | 0.0 | 0.00 | 0.00 | 0.00 | 80 | 1014.8 |
| 20260508054848 | 60 | 261 | 0.0 | 0.0 | 0.00 | 0.00 | 0.00 | 79 | 1014.6 |
| 20260508052708 | 60 | 261 | 0.0 | 0.0 | 0.00 | 0.00 | 0.00 | 78 | 1014.4 |
| 20260508051729 | 61 | 260 | 0.0 | 0.0 | 0.00 | 0.00 | 0.00 | 78 | 1014.5 |
| 20260508050746 | 61 | 260 | 0.0 | 0.0 | 0.00 | 0.00 | 0.00 | 78 | 1014.5 |
| 20260508045753 | 61 | 260 | 0.0 | 0.0 | 0.00 | 0.00 | 0.00 | 78 | 1014.6 |
| 20260508044811 | 61 | 260 | 0.0 | 0.0 | 0.00 | 0.00 | 0.00 | 78 | 1014.7 |
| 20260508043801 | 60 | 260 | 0.0 | 0.0 | 0.00 | 0.00 | 0.00 | 78 | 1014.7 |
| 20260508042821 | 60 | 260 | 0.0 | 0.0 | 0.00 | 0.00 | 0.00 | 78 | 1014.5 |
| 20260508041835 | 60 | 261 | 0.0 | 0.0 | 0.00 | 0.00 | 0.00 | 78 | 1014.5 |
| 20260508040857 | 60 | 261 | 0.0 | 0.0 | 0.00 | 0.00 | 0.00 | 77 | 1014.6 |
| 20260508034743 | 60 | 261 | 0.0 | 0.0 | 0.00 | 0.00 | 0.00 | 76 | 1014.5 |
| 20260508033750 | 61 | 261 | 0.0 | 0.0 | 0.00 | 0.00 | 0.00 | 75 | 1014.5 |
| 20260508032805 | 61 | 261 | 0.0 | 0.0 | 0.00 | 0.00 | 0.00 | 74 | 1014.5 |
| 20260508031748 | 61 | 261 | 0.0 | 0.0 | 0.00 | 0.00 | 0.00 | 72 | 1014.3 |
| 20260508030725 | 62 | 260 | 0.0 | 0.0 | 0.00 | 0.00 | 0.00 | 71 | 1014.3 |
| 20260508024529 | 63 | 260 | 0.0 | 0.0 | 0.00 | 0.00 | 0.00 | 69 | 1014.0 |
| 20260508023451 | 64 | 261 | 0.0 | 0.0 | 0.00 | 0.00 | 0.00 | 67 | 1013.9 |
| 20260508022424 | 65 | 261 | 0.0 | 0.0 | 0.00 | 0.00 | 0.00 | 65 | 1013.9 |
| 20260508021437 | 65 | 261 | 0.0 | 0.0 | 0.00 | 0.00 | 0.00 | 64 | 1013.7 |
| 20260508015310 | 66 | 261 | 0.0 | 0.0 | 0.00 | 0.00 | 0.00 | 62 | 1013.6 |
| 20260508014233 | 67 | 261 | 0.0 | 0.0 | 0.00 | 0.00 | 0.00 | 61 | 1013.4 |
| 20260508013203 | 67 | 261 | 0.0 | 0.0 | 0.00 | 0.00 | 0.00 | 60 | 1013.5 |
| 20260508012225 | 67 | 261 | 0.0 | 0.9 | 0.00 | 0.00 | 0.00 | 60 | 1013.5 |
| 20260508011213 | 68 | 261 | 0.0 | 2.6 | 0.00 | 0.00 | 0.00 | 59 | 1013.4 |
| 20260508010138 | 68 | 132 | 0.0 | 2.6 | 0.00 | 0.00 | 0.00 | 58 | 1013.6 |
| 20260508005121 | 69 | 119 | 0.0 | 1.7 | 0.00 | 0.00 | 0.00 | 58 | 1013.5 |
| 20260508004103 | 70 | 136 | 0.0 | 3.5 | 0.00 | 0.00 | 0.00 | 56 | 1013.1 |
| 20260508001853 | 71 | 40 | 0.0 | 0.0 | 0.00 | 0.00 | 0.00 | 58 | 1013.5 |
| 20260508000859 | 71 | 39 | 0.0 | 0.0 | 0.00 | 0.00 | 0.00 | 57 | 1013.5 |
| 20260507235843 | 72 | 39 | 0.0 | 0.0 | 0.00 | 0.00 | 0.00 | 53 | 1013.7 |
| 20260507234836 | 73 | 39 | 0.0 | 0.9 | 0.00 | 0.00 | 0.00 | 50 | 1013.6 |
| 20260507232726 | 73 | 38 | 0.0 | 1.7 | 0.00 | 0.00 | 0.00 | 45 | 1013.6 |
| 20260507231651 | 73 | 39 | 0.0 | 0.0 | 0.00 | 0.00 | 0.00 | 50 | 1013.7 |
| 20260507225504 | 73 | 39 | 0.0 | 0.9 | 0.00 | 0.00 | 0.00 | 45 | 1013.9 |
| 20260507224453 | 72 | 39 | 0.0 | 3.5 | 0.00 | 0.00 | 0.00 | 46 | 1014.0 |
| 20260507223511 | 72 | 51 | 0.0 | 2.6 | 0.00 | 0.00 | 0.00 | 48 | 1014.1 |
| 20260507222502 | 72 | 50 | 0.9 | 3.5 | 0.00 | 0.00 | 0.00 | 46 | 1014.2 |
| 20260507221433 | 72 | 30 | 0.9 | 3.5 | 0.00 | 0.00 | 0.00 | 49 | 1014.3 |
| 20260507220408 | 72 | 349 | 0.9 | 3.5 | 0.00 | 0.00 | 0.00 | 46 | 1014.3 |
| 20260507214223 | 72 | 38 | 0.0 | 0.0 | 0.00 | 0.00 | 0.00 | 46 | 1014.5 |
| 20260507213223 | 72 | 38 | 0.0 | 4.3 | 0.00 | 0.00 | 0.00 | 45 | 1014.6 |
| 20260507210008 | 73 | 276 | 0.9 | 4.3 | 0.00 | 0.00 | 0.00 | 47 | 1015.0 |
| 20260507205024 | 74 | 69 | 0.9 | 3.5 | 0.00 | 0.00 | 0.00 | 45 | 1014.9 |
| 20260507204019 | 73 | 331 | 0.9 | 3.5 | 0.00 | 0.00 | 0.00 | 45 | 1014.9 |